Vorticity
nan nan nan nan nan nan nan nan nan nan nan nan nan nan nan nan nan nan nan nan nan nan nan nan nan nan nan nan nan nan nan nan nan nan nan nan nan nan nan nan nan nan nan nan nan nan nan
nan 4 5 4 5 12 18 23 22 17 15 12 9 7 8 6 6 7 6 6 6 6 7 7 6 14 12 2 11 5 3 8 5 4 9 9 10 10 10 7 7 6 8 8 7 6 nan
nan 4 4 5 4 5 3 8 13 14 13 16 19 17 14 11 7 7 8 8 6 6 8 7 9 14 11 4 -2 3 9 7 5 7 6 7 10 6 9 8 9 6 6 11 9 8 nan
nan 4 5 5 3 3 4 4 2 2 4 7 9 11 14 18 17 12 8 6 6 8 9 8 10 12 7 11 8 8 12 9 5 6 5 4 8 9 7 5 9 9 8 10 11 9 nan
nan 6 6 5 3 3 5 4 1 2 3 6 4 5 6 9 11 11 10 9 8 11 10 8 10 8 4 11 14 9 12 8 10 10 6 9 8 8 8 11 7 12 9 5 15 13 nan
nan 11 8 7 6 6 6 4 2 4 4 4 4 5 7 6 5 5 10 12 9 12 12 9 6 7 11 10 11 13 10 9 9 9 9 8 7 7 7 9 6 5 6 7 17 12 nan
nan 11 14 13 9 9 8 3 4 5 6 5 8 7 6 8 6 7 12 12 13 12 11 8 -1 -8 -2 10 12 10 9 9 10 8 9 3 5 9 4 1 4 5 8 8 10 10 nan
nan 11 10 12 13 13 9 7 7 6 3 4 10 10 7 10 6 8 9 11 12 9 11 12 1 2 7 2 6 6 12 9 10 6 3 7 6 6 6 5 11 9 5 7 11 9 nan
nan 9 8 8 9 13 15 12 10 9 8 7 11 13 15 7 6 8 9 10 8 8 13 16 16 14 16 10 2 8 6 5 8 10 6 5 9 7 10 9 9 8 7 7 5 7 nan
nan 7 7 7 8 10 13 14 12 11 9 9 11 12 14 5 7 10 8 11 7 8 10 16 14 19 19 9 21 15 -1 3 6 9 8 9 11 6 12 13 7 8 5 9 10 11 nan
nan 5 5 6 7 8 10 13 11 9 10 13 11 7 6 1 1 6 11 15 4 5 7 15 17 13 23 8 6 24 12 1 4 2 3 7 11 11 9 10 6 7 10 10 10 11 nan
nan 6 6 5 6 6 7 10 11 11 10 13 9 6 5 4 7 5 12 11 7 9 7 5 13 11 16 11 -12 11 25 6 6 8 2 2 -1 4 10 11 10 12 13 7 10 11 nan
nan 9 8 7 6 5 5 7 10 12 11 12 10 7 3 6 11 13 10 3 9 6 9 15 9 10 6 15 15 -2 11 18 8 8 13 9 5 4 7 10 10 10 7 8 9 11 nan
nan 9 9 8 7 6 5 5 7 11 12 12 11 8 4 6 5 12 10 8 10 10 -2 5 21 13 7 7 18 15 1 4 10 6 12 19 16 14 6 11 8 7 3 7 6 6 nan
nan 6 7 9 8 7 6 5 5 8 12 13 10 8 7 10 10 8 11 12 7 6 5 -1 8 15 16 9 12 17 8 7 9 13 4 7 15 18 12 12 7 6 10 3 5 9 nan
nan 6 7 7 7 8 8 7 7 7 8 10 12 12 12 9 9 5 10 8 9 7 -2 9 11 3 8 13 14 10 10 10 10 11 11 -1 5 8 19 17 11 5 9 9 12 13 nan
nan 8 8 8 8 9 8 8 8 8 9 8 7 10 17 14 2 8 11 9 9 12 7 1 6 8 3 7 6 9 10 6 19 18 10 8 3 4 10 13 11 6 7 10 12 8 nan
nan 8 9 8 8 8 8 9 8 7 9 11 9 12 11 13 1 6 11 2 10 12 6 7 9 14 11 9 17 11 1 6 8 21 22 17 10 13 7 7 9 11 12 8 7 9 nan
nan 9 8 8 8 8 8 8 7 7 4 6 12 10 15 11 7 7 9 -2 -1 16 6 5 9 5 9 11 16 17 12 10 4 10 15 11 10 15 6 8 14 12 13 8 5 11 nan
nan 9 10 9 8 8 9 8 8 7 6 4 9 10 15 13 17 14 11 11 -1 -1 9 9 7 3 3 11 11 11 12 8 12 10 7 11 16 12 8 9 10 10 8 9 7 6 nan
nan 10 9 8 8 9 9 9 9 9 8 6 7 9 12 16 16 15 9 9 13 2 5 4 8 11 6 2 11 13 9 7 9 8 13 13 8 9 13 11 8 11 6 8 7 9 nan
nan 9 9 9 9 9 8 8 8 10 9 6 7 10 9 12 23 18 9 6 9 10 10 5 3 7 8 6 9 9 10 10 11 9 10 12 12 6 9 14 11 8 10 9 7 8 nan
nan 11 10 9 10 9 8 8 9 11 6 5 9 10 9 13 16 18 17 14 4 -0 7 19 11 6 8 13 10 13 11 9 6 7 10 12 13 9 13 11 2 12 17 5 8 7 nan
nan 14 12 10 10 9 8 9 10 11 3 2 9 10 13 11 7 16 16 11 13 9 -2 3 20 19 7 10 8 14 12 10 7 5 7 8 9 10 13 10 8 10 15 13 8 2 nan
nan 19 13 9 10 10 9 9 11 12 4 1 8 7 9 14 12 6 15 20 10 10 14 8 10 13 20 5 6 8 7 14 14 13 7 4 7 9 11 4 8 16 13 13 15 13 nan
nan 19 16 10 9 10 10 11 11 10 5 6 8 8 9 10 10 15 15 17 19 12 9 12 12 13 10 10 11 11 8 11 12 15 14 4 6 7 9 13 8 13 16 12 10 13 nan
nan 20 18 11 10 11 11 11 11 11 5 2 12 9 6 11 7 14 14 15 15 18 10 11 11 9 8 10 9 12 10 10 12 11 15 12 12 10 3 5 8 12 13 15 10 15 nan
nan 21 15 13 11 11 11 11 11 12 7 1 10 11 6 6 10 13 13 14 12 13 14 8 6 11 12 13 9 8 14 11 8 12 14 10 8 12 12 8 11 12 15 13 6 14 nan
nan nan nan nan nan nan nan nan nan nan nan nan nan nan nan nan nan nan nan nan nan nan nan nan nan nan nan nan nan nan nan nan nan nan nan nan nan nan nan nan nan nan nan nan nan nan nan
CAPE
6 3 3 3 4 0 0 0 0 0 0 0 0 0 0 0 0 0 0 0 0 0 0 0 0 0 0 0 0 0 0 0 0 0 0 0 0 0 0 0 0 0 0 0 0 0 0
2 8 4 2 2 7 4 0 0 0 0 0 0 0 0 0 0 0 0 0 0 0 0 0 0 0 0 0 0 0 0 0 0 0 0 0 0 0 0 0 0 0 0 0 0 0 0
0 1 12 3 0 1 5 3 5 3 0 1 0 0 0 0 0 0 0 0 0 0 0 0 0 0 0 0 0 0 0 0 0 0 0 0 0 0 0 0 0 0 0 0 0 0 0
1 0 12 26 3 1 1 3 3 3 3 5 2 3 1 0 0 0 0 0 0 0 0 0 0 0 1 0 0 0 0 0 0 0 0 0 0 0 0 0 0 0 0 0 0 0 0
34 25 17 35 38 28 15 10 1 0 1 2 4 0 3 0 0 0 0 0 0 0 0 0 0 0 1 0 0 0 0 0 0 0 0 0 0 0 0 0 0 0 0 0 0 0 0
55 49 37 42 42 32 30 16 8 0 0 2 10 5 1 1 0 0 0 0 0 0 0 0 1 1 0 0 0 0 0 0 0 0 0 0 0 0 0 0 0 0 0 0 0 0 0
37 49 51 59 56 38 56 37 25 23 31 12 6 15 0 1 0 0 0 0 1 1 0 0 0 0 0 0 0 0 0 0 0 0 0 0 0 0 0 0 0 0 0 0 0 0 0
36 38 24 29 48 52 46 34 33 19 13 16 19 28 4 1 0 0 1 7 0 0 0 0 0 0 0 0 0 1 0 0 0 0 0 0 0 0 0 0 0 0 0 0 0 0 0
9 20 21 20 15 36 51 53 56 45 18 18 39 37 30 12 9 9 16 23 0 0 5 1 0 0 0 0 0 0 0 0 0 0 0 0 0 0 0 0 0 0 0 0 0 0 0
24 21 8 12 14 25 49 62 58 65 55 21 32 7 1 7 18 35 18 2 0 0 3 0 0 0 0 0 1 2 0 0 0 0 0 0 0 0 0 0 0 0 0 0 0 0 0
62 60 33 13 11 35 31 48 41 40 60 51 41 26 20 18 37 36 13 31 18 2 0 0 0 0 0 0 0 0 0 1 0 0 0 0 0 0 0 0 0 0 0 0 0 0 0
87 82 78 52 31 34 36 35 52 40 36 40 48 36 29 40 13 0 14 33 1 0 0 0 0 0 0 0 0 0 0 0 2 1 0 0 0 0 0 0 0 0 0 0 0 0 0
55 68 91 75 66 67 48 52 53 67 53 55 44 45 30 71 3 0 17 2 1 0 0 0 0 0 0 0 0 2 0 1 3 12 9 5 0 0 0 0 0 0 0 0 0 0 0
68 62 70 65 65 72 79 71 56 66 72 66 65 34 17 10 1 2 16 13 12 0 0 0 0 0 0 0 0 4 1 0 0 2 8 24 7 0 0 0 0 0 0 0 0 0 0
57 71 67 73 83 79 48 52 79 73 70 64 72 26 3 0 0 1 15 0 0 0 0 0 0 0 0 0 1 8 4 0 0 0 18 0 0 0 0 0 0 0 0 0 0 0 0
49 68 84 91 82 73 64 47 39 91 76 75 40 34 0 0 30 11 9 8 0 0 0 0 0 0 0 0 2 9 0 0 0 0 34 15 0 0 0 0 0 0 0 0 0 0 0
77 79 83 89 91 85 75 68 54 57 96 50 66 20 1 0 66 36 1 1 0 0 0 0 0 0 0 0 1 0 0 0 0 0 0 3 9 0 0 0 0 0 0 0 0 0 0
115 134 112 106 92 98 82 88 78 59 54 67 14 3 0 24 17 5 0 9 0 0 0 0 0 0 0 0 0 1 0 0 0 0 10 16 1 0 0 0 0 0 0 0 0 0 0
122 123 119 119 106 105 99 100 86 80 70 55 7 2 1 43 5 1 2 5 6 3 0 0 3 2 0 0 0 2 0 0 0 0 0 0 0 0 0 0 0 0 0 0 0 0 0
118 132 65 48 100 132 129 113 89 63 50 71 0 1 5 23 0 0 0 0 0 0 0 0 1 28 0 0 0 0 0 0 0 0 0 0 0 0 0 0 0 0 0 0 0 0 0
122 138 144 162 182 206 198 165 122 110 106 86 0 0 1 1 1 0 0 0 0 8 6 0 0 0 0 0 0 0 0 0 0 0 0 0 0 0 0 5 4 2 0 0 0 0 0
99 111 127 157 197 238 249 221 152 118 116 75 0 1 9 2 5 2 1 1 1 0 7 0 0 0 0 1 0 3 0 0 0 0 0 0 0 0 0 0 6 6 0 0 0 0 0
101 82 105 145 179 243 300 266 220 174 149 40 0 5 7 1 10 7 0 0 0 0 15 40 0 0 9 4 24 2 0 0 0 0 0 0 0 0 0 2 15 1 0 0 0 0 0
127 109 102 121 188 162 272 270 266 211 174 22 1 2 1 0 23 10 0 0 0 0 0 29 61 15 0 139 27 9 0 6 1 0 0 0 0 1 0 3 13 0 0 0 0 0 0
174 138 49 79 157 204 235 271 276 213 246 81 6 23 1 3 2 0 9 8 0 9 18 44 82 35 117 42 0 0 1 5 9 7 0 0 0 0 2 5 0 0 0 0 0 0 0
142 97 74 54 148 193 234 259 277 225 240 56 41 38 32 15 12 7 26 5 0 0 3 7 33 39 67 18 1 0 2 0 15 3 0 1 0 0 3 4 0 0 0 0 2 0 0
78 53 84 50 148 187 232 269 221 240 264 85 19 36 18 21 0 22 0 3 2 0 0 5 53 49 10 0 8 0 2 3 40 5 5 17 2 8 0 4 0 0 0 0 0 0 0
138 52 75 104 145 178 240 244 262 284 249 117 7 25 31 1 0 18 13 2 1 20 0 2 35 2 2 1 26 12 0 0 0 10 3 13 40 12 2 17 0 0 0 0 0 0 0
126 65 76 107 136 185 221 195 194 275 239 145 29 12 34 19 1 28 11 52 5 0 0 20 0 9 0 0 0 0 3 0 4 2 0 2 0 0 0 0 0 16 15 3 1 0 0